#timestamp,LO_Frequency,Hit,StdDev 
1710723615.7,286047000.4,N
1710723635.6,286046999.9,N
1710723655.4,286046999.9,N
1710723675.2,286046999.7,N
1710723695.1,286047002.8,N
1710723696.0,286047002.8,N
1710723715.8,286047002.7,N
1710723735.6,286047001.9,N
1710723755.5,286047001.8,N
1710723775.3,286047002.2,N
1710723795.2,286046999.7,N
1710723815.9,286047000.6,N
1710723835.7,286047000.7,N
1710723855.6,286047001.2,N
1710723875.4,286047000.0,N
1710723895.2,286047000.5,N
1710723915.1,286047000.7,N
1710723916.0,286047000.7,N
1710723935.8,286046998.2,N
1710723955.7,286046998.1,N
1710723975.5,286046999.0,N
1710723995.3,286047001.0,N
1710724015.2,286047002.7,N
1710724035.0,286047002.6,N
1710724035.9,286047002.6,N
1710724055.7,286046999.7,N
1710724075.6,286047002.8,N
1710724095.4,286047002.4,N
1710724115.3,286047000.3,N
1710724135.1,286047001.0,N
1710724155.8,286047000.6,N
1710724175.7,286047000.2,N
1710724195.5,286047000.2,N
1710724215.4,286047002.7,N
1710724235.2,286047002.7,N
1710724255.0,286047002.5,N
1710724255.9,286047002.5,N
1710724275.8,286047002.0,N
1710724295.6,286047002.8,N
1710724315.4,286047001.2,N
1710724335.3,286046999.9,N
1710724355.1,286047000.5,N
1710724375.9,286047000.9,N
1710724395.7,286047001.2,N
1710724415.5,286047000.5,N
1710724465.4,286047002.3,E
1710724475.3,286047000.9,N
1710724495.2,286047001.2,P
1710724515.9,286046999.6,N
1710724535.7,286046997.2,Y
1710724555.6,286046997.3,P
1710724575.4,286046999.6,N
1710724595.2,286046999.4,N
1710724615.1,286046999.3,N
1710724616.0,286046999.3,N
1710724635.8,286046999.1,N
1710724655.7,286046998.3,N
1710724675.5,286046998.9,N
1710724695.3,286046998.2,N
1710724715.2,286046998.5,N
1710724735.0,286046999.6,N
1710724735.9,286046999.6,N
1710724755.8,286046999.3,N
1710724775.6,286046998.6,N
1710724795.4,286046998.5,N
1710724815.3,286046998.9,N
1710724835.1,286046998.2,N
1710724855.8,286047001.0,N
1710724875.7,286046998.3,N
1710724895.5,286046998.7,N
1710724915.4,286047000.9,N
1710724935.2,286047000.5,N
1710724955.0,286047000.9,N
1710724955.9,286047000.9,N
1710724975.8,286046998.5,N
1710724995.6,286046998.6,N
1710725015.4,286046996.5,Y
1710725035.3,286046996.9,P
1710725055.1,286046999.4,N
1710725075.9,286046999.1,N
1710725095.7,286046999.4,N
1710725115.5,286046998.2,N
1710725135.4,286046999.0,N
1710725155.2,286046998.7,N
1710725175.0,286046998.7,N
1710725175.9,286046998.7,N
1710725195.8,286046999.0,N
1710725215.6,286046998.5,N
1710725235.5,286046998.4,N
1710725255.3,286046999.5,N
1710725275.1,286046997.4,Y
1710725295.9,286046998.7,P
1710725315.7,286046998.3,P
1710725335.6,286046999.5,N
1710725355.4,286046998.8,N
1710725375.2,286047000.6,N
1710725395.1,286047000.6,N
1710725396.0,286047000.6,N
1710725415.8,286047000.5,N
1710725435.6,286047000.5,N
1710725455.5,286046998.4,N
1710725475.3,286046998.2,N
1710725495.2,286046999.1,N
1710725515.9,286046996.8,Y
1710725535.7,286046996.8,P
1710725555.6,286046998.8,N
1710725575.4,286046999.3,N
1710725595.2,286046998.8,N
1710725615.1,286047000.9,N
1710725616.0,286047000.9,N
1710725635.8,286046998.1,N
1710725655.7,286046998.7,N
1710725675.5,286047001.1,N
1710725695.3,286047000.6,N
1710725715.2,286047002.7,N
1710725735.0,286047002.4,N
1710725735.9,286047002.4,N
1710725755.7,286046999.9,N
1710725775.6,286047000.5,N
1710725795.4,286047000.9,N
1710725815.3,286047000.7,N
1710725835.1,286046998.2,N
1710725836.0,286046998.2,N
1710725855.8,286046998.7,N
1710725875.7,286046998.1,N
1710725895.5,286046998.4,N
1710725915.3,286046998.3,N
1710725935.2,286046998.2,N
1710725955.0,286046996.6,N
1710725955.9,286046996.6,N
1710725975.8,286046996.5,N
1710725995.6,286046999.0,N
1710726015.4,286046998.5,N
1710726035.3,286046998.9,N
1710726055.1,286046997.1,N
1710726075.9,286046997.8,N
1710726095.7,286046996.5,N
1710726115.5,286046998.2,N
1710726135.4,286046999.3,N
1710726155.2,286046999.1,N
1710726175.0,286046996.9,N
1710726175.9,286046996.9,N
1710726195.8,286046997.3,N
1710726215.6,286046995.5,N
1710726235.4,286046998.0,N
1710726255.3,286046997.3,N
1710726275.1,286046997.9,N
1710726295.9,286046994.9,Y
1710726315.7,286046998.5,P
1710726335.5,286046998.7,P
1710726355.4,286046998.2,P
1710726375.2,286046998.7,Y
1710726395.1,286047000.0,P
1710726396.0,286047000.0,N
1710726415.8,286046999.8,N
1710726435.6,286047002.4,Y
1710726455.5,286047002.8,P
1710726475.3,286046999.7,N
1710726495.1,286046999.8,N
1710726515.9,286046999.9,N
1710726535.7,286047001.1,N
1710726555.6,286047000.4,N
1710726575.4,286047000.6,N
1710726595.2,286046999.7,N
1710726615.1,286046999.7,N
1710726616.0,286046999.7,N
1710726635.8,286047002.8,N
1710726655.7,286047002.1,N
1710726675.5,286047001.6,N
1710726695.3,286047001.4,N
1710726715.2,286047001.4,N
1710726735.0,286047004.0,Y
1710726735.9,286047004.0,P
1710726755.8,286047001.7,N
1710726775.6,286047001.8,N
1710726795.4,286047004.4,Y
1710726815.3,286047002.5,P
1710726835.1,286047002.3,P
1710726855.9,286047000.0,N
1710726875.7,286047000.2,N
1710726895.5,286047000.3,N
1710726915.4,286047001.1,N
1710726935.2,286047001.2,N
1710726955.0,286046999.3,N
1710726955.9,286046999.3,N
1710726975.8,286046996.6,Y
1710726995.6,286046997.4,P
1710727015.5,286046997.1,N
1710727035.3,286046999.4,N
1710727055.1,286046998.2,N
1710727075.9,286046998.1,N
1710727095.7,286046998.6,N
1710727115.5,286046998.9,N
1710727135.4,286046996.7,Y
1710727155.2,286046998.1,P
1710727175.1,286047000.9,P
1710727176.0,286047000.9,N
1710727195.8,286047000.9,N
